Location: Unspecified
(38.0989°N, 0.6729°W)
Time: 12:43:25
(UTC+02:00)

Tiangong 2 - Visible Passes

Search period start: 22 July 2017 00:00
Search period end: 01 August 2017 00:00
Orbit: 392 x 394 km, 42.8° (Epoch: 21 July)

Date Brightness Start Highest point End Pass type
(mag) Time Alt. Az. Time Alt. Az. Time Alt. Az.
22 Jul 1.6 23:00:43 10° WNW 23:03:54 55° NNE 23:04:48 38° ENE visible
23 Jul 2.2 22:03:54 10° WNW 22:06:59 41° N 22:10:04 10° E visible
23 Jul 2.7 23:40:50 10° WNW 23:42:43 30° W 23:42:43 30° W visible
24 Jul 1.0 22:43:57 10° WNW 22:47:11 89° SSW 22:48:17 38° ESE visible
25 Jul 1.5 21:47:07 10° WNW 21:50:19 60° NNE 21:53:29 10° E visible
25 Jul 3.0 23:24:20 10° W 23:26:15 23° WSW 23:26:15 23° WSW visible
26 Jul 1.7 22:27:15 10° WNW 22:30:20 45° SSW 22:31:52 24° SSE visible
27 Jul 3.6 23:08:28 10° WSW 23:09:55 13° SW 23:09:55 13° SW visible
28 Jul 2.9 22:10:46 10° W 22:13:23 23° SW 22:15:38 12° SSE visible
30 Jul 3.8 21:55:13 10° WSW 21:56:17 11° SW 21:57:20 10° SSW visible
